Regional Weather Roundup
Issued by NWS Goodland, KS

Home | Current Version | Previous Version | Graphics & Text | Print | Product List | Glossary On
Versions: 1 2 3 4 5 6 7 8 9 10 11 12 13 14 15 16 17 18 19 20 21 22 23 24 25 26 27 28 29 30 31 32 33 34 35 36 37 38 39 40 41 42 43 44 45 46 47 48 49 50
000
ASUS43 KGLD 260459
RWRGLD

GOODLAND FORECAST AREA HOURLY WEATHER ROUNDUP
NATIONAL WEATHER SERVICE GOODLAND KS
1100 PM MDT WED MAY 25 2016

...OFFICIAL OBSERVATIONS...

CITY           SKY/WX    TMP DP  RH WIND       PRES   REMARKS
GOODLAND KS    CLEAR     52  47  83 E8        29.92S
HILL CITY KS   CLEAR     60  52  74 NE13      29.90F
IMPERIAL NEB   CLEAR     55  49  80 N3        29.93R
MCCOOK NEB     CLOUDY    58  50  75 N14       29.87F
AKRON CO       CLOUDY    54  44  69 N10       29.98R
BURLINGTON CO  CLEAR     51  43  74 NE9       29.94R
LIMON CO       CLEAR     53  41  63 E16       29.98R
$$

...UNOFFICIAL OBSERVATIONS...

CITY           SKY/WX    TMP DP  RH WIND       PRES   REMARKS
GOVE KS          N/A     65  32  29 MISG        N/A
LENORA KS        N/A     58  32  37 MISG        N/A
SHARON SPRINGS   N/A     57  51  79 NE12        N/A
KIT CARSON CO    N/A     55  43  65 MISG        N/A
YUMA CO          N/A     54  47  78 NE7         N/A
$$




USA.gov is the U.S. government's official web portal to all federal, state and local government web resources and services.